Regional Weather Roundup
Issued by NWS

Home | Current Version | Previous Version | Text Only | Print | Product List | Glossary Off
Versions: 1 2 3 4 5 6 7 8 9 10 11 12 13 14 15 16 17 18 19 20 21 22 23 24 25 26 27 28 29 30 31 32 33 34 35 36 37 38 39 40 41 42 43 44 45 46 47 48 49 50

000
ASUS43 KMPX 240110
RWRMN
WEATHER ROUNDUP FOR MINNESOTA
NATIONAL WEATHER SERVICE TWIN CITIES/CHANHASSEN MN
800 PM CDT SAT MAY 23 2015


NOTE: "FAIR" INDICATES FEW OR NO CLOUDS BELOW 12,000 FEET WITH NO
SIGNIFICANT WEATHER AND/OR OBSTRUCTIONS TO VISIBILITY. N/A MEANS
CURRENT SKY AND/OR WEATHER CONDITIONS ARE NOT AVAILABLE.

MNZ060>063-068>070-240200-
   Twin Cities Metro

CITY           SKY/WX    TMP DP  RH WIND       PRES   REMARKS
TWIN CITIES    CLOUDY    66  46  48 NE13      30.13F
ST PAUL        CLOUDY    65  47  52 NE8       30.14F
CRYSTAL        CLOUDY    64  49  57 NE7       30.13F
BLAINE         CLOUDY    63  55  77 NE5       30.14F
LAKEVILLE      CLOUDY    64  46  52 NE8       30.12F
EDEN PRAIRIE   CLOUDY    65  46  50 NE9       30.12F
SOUTH ST PAUL  CLOUDY    66  45  46 N7        30.13F
LAKE ELMO      MOCLDY    63  46  55 NE6       30.15F
$$
MNZ001>005-007-008-013>017-022>024-027-028-240200-
   Northwest Minnesota

CITY           SKY/WX    TMP DP  RH WIND       PRES   REMARKS
BEMIDJI        PTCLDY    69  44  40 S6        30.12R
HALLOCK        PTCLDY    77  28  16 CALM      30.05S
ROSEAU         CLEAR     75  34  22 W3        30.07S
WARROAD        CLEAR     73  43  33 W3        30.08S
THIEF RVR FALL CLEAR     72  43  35 SW8       30.10S
CROOKSTON      PTCLDY    72  43  35 SW9       30.10S
FOSSTON        PTCLDY    70  43  37 S13       30.12R
DETROIT LAKES  PTCLDY    66  45  45 S6        30.14S
MOORHEAD       CLEAR     68  45  42 SE8       30.11F
PARK RAPIDS    MOCLDY    67  42  40 S9        30.13F
MAHNOMEN       FAIR      67  44  43 S12       30.12S
$$
MNZ006-009>011-018-025>026-240200-
   North Central Minnesota

CITY           SKY/WX    TMP DP  RH WIND       PRES   REMARKS
BAUDETTE       CLEAR     72  38  29 S7        30.07F
FLAG ISLAND    CLEAR     66  46  48 S8        30.05S
INTL FALLS     CLEAR     73  37  27 W5        30.07S
WASKISH        CLEAR     68  48  49 CALM      30.09F
BIG FORK       PTCLDY    70  43  37 SW7       30.11R
LONGVILLE      MOCLDY    66  43  42 S6        30.14F
GRAND RAPIDS   PTCLDY    66  43  42 SW9       30.14S
CRANE LAKE     MOCLDY    73  28  19 SW5       30.09R
ORR            CLEAR     73  27  17 CALM      30.07S
COOK           CLEAR     73  34  23 SW5       30.10S
WALKER         FAIR      66  42  41 S3        30.13F
$$
MNZ012-019>021-037-240200-
   Northeast Minnesota

CITY           SKY/WX    TMP DP  RH WIND       PRES   REMARKS
DULUTH         PTCLDY    68  43  40 SW14      30.15R
ELY            MOCLDY    73  30  20 SW7       30.09S
HIBBING        PTCLDY    70  42  36 SW8G17    30.12R
EVELETH        PTCLDY    70  41  35 SW14      30.13R
DULUTH HARBOR  PTCLDY    70  46  43 SW10      30.14R
TWO HARBORS    PTCLDY    72  48  43 SW10G20   30.11R
GRAND MARAIS     N/A     47  36  65 SW9       30.08S
G MARAIS ARPRT CLEAR     66  27  22 SW6       30.13R
$$
MNZ029>031-032-039>041-046>048-054>057-064-240200-
   West Central Minnesota

CITY           SKY/WX    TMP DP  RH WIND       PRES   REMARKS
FERGUS FALLS   CLOUDY    66  45  45 SE7       30.12F
WHEATON        CLOUDY    64  48  55 SE10      30.12F
MORRIS         CLOUDY    66  48  52 E12       30.10F
ALEXANDRIA     CLOUDY    65  45  48 E8        30.15F
ELBOW LAKE     FAIR      66  46  48 SE7       30.12S
WADENA         PTCLDY    66  45  45 SE6       30.14F
GLENWOOD       CLOUDY    64  46  52 E8        30.14F
APPLETON       CLOUDY    66  46  48 E9        30.09F
BENSON         CLOUDY    64  46  52 CALM      30.11F
ORTONVILLE     CLOUDY    66  48  52 E7        30.09F
MADISON        CLOUDY    66  46  48 E14       30.09S
WILLMAR        FAIR      64  46  52 E13       30.12F
$$
MNZ033>034-036-042>043-049>051-058-059-240200-
   Central Minnesota

CITY           SKY/WX    TMP DP  RH WIND       PRES   REMARKS
ST CLOUD       CLOUDY    64  46  52 CALM      30.14F
SAUK CENTRE    CLOUDY    63  48  59 E6        30.14F
PAYNESVILLE    CLOUDY    62  46  56 NE6       30.14S
AITKIN         MOCLDY    66  39  37 S6        30.15S
PINE RIVER     MOCLDY    66  45  45 S7        30.17F
BRAINERD       MOCLDY    64  44  48 SW3       30.16S
STAPLES        MOCLDY    66  43  42 SE6       30.15S
LONG PRAIRIE   CLOUDY    63  45  51 E6        30.15F
LITTLE FALLS   CLOUDY    64  43  45 E3        30.15F
LITCHFIELD     CLOUDY    63  48  59 NE9       30.13F
BUFFALO        CLOUDY    62  51  67 NE7       30.15S
MAPLE LAKE     CLOUDY    63  51  66 NE3       30.15F
$$
MNZ037-044-045-052-053-240200-
   East Central Minnesota

CITY           SKY/WX    TMP DP  RH WIND       PRES   REMARKS
PRINCETON      CLOUDY    66  48  52 CALM      30.16S
MORA           CLOUDY    63  45  51 CALM      30.17F
CAMBRIDGE      CLOUDY    66  48  52 CALM      30.14F
RUSH CITY      CLOUDY    63  49  61 CALM      30.16F
MOOSE LAKE     PTCLDY    66  39  37 SW3       30.14F
HINCKLEY       FAIR      64  48  55 CALM      30.16F
CLOQUET        PTCLDY    66  39  37 SW7       30.15F
MCGREGOR       MOCLDY    64  41  42 S7        30.16F
$$
MNZ071>073-080-081-089-090-097-098-240200-
   Southwest Minnesota

CITY           SKY/WX    TMP DP  RH WIND       PRES   REMARKS
MONTEVIDEO     CLOUDY    66  48  52 SE12      30.10F
GRANITE FALLS  CLOUDY    65  48  53 E9        30.11S
CANBY          CLOUDY    67  46  46 E13       30.09S
MARSHALL       CLOUDY    64  46  52 E12       30.08S
REDWOOD FALLS  CLOUDY    65  50  58 E9        30.09F
OLIVIA         CLOUDY    61  45  55 E8        30.09F
PIPESTONE      CLOUDY    64  50  59 S9        30.08R
WINDOM         CLOUDY    66  46  48 CALM      30.10S
WORTHINGTON    CLOUDY    64  46  52 SE7       30.09S
JACKSON        CLOUDY    66  48  52 SE9       30.10F
TRACY          CLOUDY    67  49  53 S8        30.09R
SLAYTON        CLOUDY    65  49  55 CALM      30.10R
$$
MNZ065>067-074>077-082>085-091>093-240200-
   South Central Minnesota

CITY           SKY/WX    TMP DP  RH WIND       PRES   REMARKS
MANKATO        CLOUDY    70  48  46 S8        30.10F
NEW ULM        CLOUDY    68  48  49 S10       30.10S
ST JAMES       CLOUDY    68  52  56 SE10      30.11S
FAIRMONT       CLOUDY    66  46  48 SE9       30.11S
GLENCOE        CLOUDY    64  51  60 NE7       30.11F
FARIBAULT      CLOUDY    72  46  40 SW6       30.12S
OWATONNA       CLOUDY    72  46  40 S3        30.12S
WASECA         LGT RAIN  70  48  46 S8        30.12F
ALBERT LEA     MOCLDY    68  52  56 S3        30.12S
$$
MNZ078>079-086>088-094>096-240200-
   Southeast Minnesota

CITY           SKY/WX    TMP DP  RH WIND       PRES   REMARKS
ROCHESTER      CLOUDY    71  46  40 S8        30.14S
RED WING       MOCLDY    70  43  37 E5        30.11F
STANTON        CLOUDY    71  43  35 E8        30.10F
DODGE CENTER   CLOUDY    72  46  40 S7        30.13S
WINONA         MOCLDY    70  50  49 SE3       30.13S
AUSTIN         MOCLDY    70  46  43 SE6       30.12S
PRESTON        MOCLDY    68  46  45 S7        30.15S
$$
ABBREVIATIONS USED IN REMARKS
   TC - TEMPERATURES IN CELSIUS
  WCI - WIND CHILL INDEX
   HX - HEAT INDEX
  VSB - VISIBILITY
$$


USA.gov is the U.S. government's official web portal to all federal, state and local government web resources and services.